Location: Brunsen
(51.8651°N, 9.8610°E)
Time: 09:43:26
(UTC+00:00)

Cosmos 2221 Rocket - Pass Details

Date: 23 May 2024
Orbit: 617 x 646 km, 82.5° (Epoch: 18 June)

Event Time Altitude Azimuth Distance (km) Brightness Sun altitude
Exits shadow 02:28:29 - 186° (S) 2,853 6.5 -6.4°
Reaches altitude 10° 02:30:29 10° 185° (S) 2,042 5.8 -6.1°
Maximum altitude 02:35:01 81° 99° (E) 660 3.8 -5.6°
Drops below altitude 10° 02:39:35 10° 12° (NNE) 2,049 7.2 -5.1°
Sets 02:41:50 0° 12° (NNE) 2,959 8.1 -4.9°
